DW1188 Weather Reports


time (UTC)temp
C
wind
direction
speed
KPH
gust
KPH
rain 1hr
cm
rain 24hr
cm
rain mn
cm
humidity
%
barometer
mb
20260506214638 23 241 8.0 30.6 0.00 0.00 0.00 43 1012.4
20260506212054 23 233 11.3 25.7 0.00 0.00 0.00 41 1012.7
20260506210820 23 247 4.8 25.7 0.00 0.00 0.00 43 1012.9
20260506204254 23 88 0.0 0.0 0.00 0.00 0.00 42 1013.2
20260506201833 22 123 0.0 0.0 0.00 0.00 0.00 42 1013.5
20260506200631 22 143 0.0 0.0 0.00 0.00 0.00 42 1013.6
20260506195436 21 155 0.0 0.0 0.00 0.00 0.00 41 1013.6
20260506194207 21 178 0.0 0.0 0.00 0.00 0.00 44 1013.9
20260506193030 20 240 0.0 0.0 0.00 0.00 0.00 43 1014.0
20260506191855 20 265 0.0 0.0 0.00 0.00 0.00 44 1014.2
20260506190648 20 275 0.0 0.0 0.00 0.00 0.00 44 1014.7
20260506182831 19 159 0.0 0.0 0.00 0.00 0.00 45 1014.5
20260506181635 18 162 0.0 0.0 0.00 0.00 0.00 45 1014.5
20260506180429 18 130 0.0 1.6 0.00 0.00 0.00 43 1014.6
20260506175216 18 82 0.0 6.4 0.00 0.00 0.00 43 1014.9
20260506174038 18 115 0.0 8.0 0.00 0.00 0.00 42 1014.8
20260506172816 17 155 0.0 0.0 0.00 0.00 0.00 44 1015.0
20260506171544 17 163 0.0 0.0 0.00 0.00 0.00 41 1015.3
20260506170350 17 88 0.0 0.0 0.00 0.00 0.00 42 1015.3
20260506165123 17 138 0.0 0.0 0.00 0.00 0.00 40 1015.5
20260506163928 16 92 0.0 0.0 0.00 0.00 0.00 40 1015.6
20260506161418 15 150 0.0 0.0 0.00 0.00 0.00 43 1015.5
20260506160207 15 92 0.0 0.0 0.00 0.00 0.00 45 1015.7
20260506155038 14 55 0.0 0.0 0.00 0.00 0.00 46 1015.7
20260506153832 13 67 0.0 0.0 0.00 0.00 0.00 49 1015.9
20260506152558 13 90 0.0 0.0 0.00 0.00 0.00 50 1015.9
20260506151359 12 80 0.0 1.6 0.00 0.00 0.00 49 1015.9
20260506150147 12 85 0.0 0.0 0.00 0.00 0.00 53 1015.9
20260506142209 11 72 0.0 0.0 0.00 0.00 0.00 59 1015.9
20260506141002 11 65 0.0 0.0 0.00 0.00 0.00 61 1016.0
20260506135825 10 71 0.0 0.0 0.00 0.00 0.00 67 1016.0
20260506134557 10 86 0.0 0.0 0.00 0.00 0.00 68 1015.9
20260506133353 10 85 0.0 0.0 0.00 0.00 0.00 68 1015.9
20260506132134 9 86 0.0 0.0 0.00 0.00 0.00 68 1015.7
20260506130938 8 82 0.0 0.0 0.00 0.00 0.00 74 1015.6
20260506125700 8 77 0.0 0.0 0.00 0.00 0.00 73 1015.5
20260506124524 8 77 0.0 0.0 0.00 0.00 0.00 69 1015.4
20260506123312 8 77 0.0 0.0 0.00 0.00 0.00 68 1015.4
20260506122051 8 78 0.0 0.0 0.00 0.00 0.00 68 1015.3
20260506120815 8 93 0.0 0.0 0.00 0.00 0.00 68 1015.1
20260506115539 8 82 0.0 0.0 0.00 0.00 0.00 69 1015.1
20260506114402 8 89 0.0 0.0 0.00 0.00 0.00 69 1015.2
20260506113148 8 91 0.0 0.0 0.00 0.00 0.00 68 1015.2
20260506110711 9 90 0.0 0.0 0.00 0.00 0.00 68 1015.1
20260506105525 9 92 0.0 0.0 0.00 0.00 0.00 67 1015.0
20260506104301 10 96 0.0 0.0 0.00 0.00 0.00 65 1015.0
20260506103109 10 97 0.0 0.0 0.00 0.00 0.00 65 1014.9
20260506101930 10 77 0.0 0.0 0.00 0.00 0.00 67 1014.9
20260506100726 10 73 0.0 0.0 0.00 0.00 0.00 64 1014.9
20260506095505 10 74 0.0 0.0 0.00 0.00 0.00 64 1014.8
20260506094319 11 86 0.0 0.0 0.00 0.00 0.00 63 1014.8
20260506093115 11 86 0.0 0.0 0.00 0.00 0.00 63 1014.8
20260506091936 11 88 0.0 0.0 0.00 0.00 0.00 64 1014.8
20260506090739 11 86 0.0 0.0 0.00 0.00 0.00 67 1014.8
20260506085524 11 87 0.0 0.0 0.00 0.00 0.00 67 1014.7
20260506084247 11 66 0.0 0.0 0.00 0.00 0.00 66 1014.7
20260506083031 11 66 0.0 0.0 0.00 0.00 0.00 63 1014.7
20260506081833 12 64 0.0 0.0 0.00 0.00 0.00 59 1014.5
20260506080608 13 122 0.0 0.0 0.00 0.00 0.00 49 1014.4
20260506073005 12 130 0.0 0.0 0.00 0.00 0.00 54 1014.2
20260506070445 12 104 0.0 0.0 0.00 0.00 0.00 58 1014.2
20260506061645 13 125 0.0 0.0 0.00 0.00 0.00 55 1013.7
20260506060431 13 125 0.0 0.0 0.00 0.00 0.00 54 1013.6
20260506050335 15 99 0.0 4.8 0.00 0.00 0.00 47 1012.9
20260506044028 16 28 0.0 0.0 0.00 0.00 0.00 45 1012.7
20260506042754 16 28 0.0 0.0 0.00 0.00 0.00 42 1012.6
20260506040253 17 15 0.0 0.0 0.00 0.00 0.00 38 1012.5
20260506033721 18 12 0.0 0.0 0.00 0.00 0.00 35 1012.3
20260506032550 18 12 0.0 0.0 0.00 0.00 0.00 33 1012.3
20260506031341 19 12 0.0 0.0 0.00 0.00 0.00 31 1012.2
20260506030205 20 12 0.0 0.0 0.00 0.00 0.00 30 1012.1
20260506025024 20 12 0.0 0.0 0.00 0.00 0.00 29 1012.1
20260506023847 21 12 0.0 0.0 0.00 0.00 0.00 29 1012.1
20260506022703 21 34 0.0 0.0 0.00 0.00 0.00 27 1012.1
20260506021514 21 38 0.0 0.0 0.00 0.00 0.00 26 1012.1
20260506020235 21 38 0.0 0.0 0.00 0.00 0.00 26 1012.1
20260506015024 21 333 0.0 0.0 0.00 0.00 0.00 26 1012.1
20260506013841 21 24 0.0 0.0 0.00 0.00 0.00 26 1012.1
20260506012617 21 350 0.0 0.0 0.00 0.00 0.00 27 1012.0
20260506011445 21 39 0.0 6.4 0.00 0.00 0.00 26 1012.1
20260506004909 21 37 0.0 0.0 0.00 0.00 0.00 25 1012.2
20260506003655 21 111 0.0 0.0 0.00 0.00 0.00 26 1012.2
20260506002512 21 35 0.0 0.0 0.00 0.00 0.00 26 1012.3
20260506001300 21 50 0.0 0.0 0.00 0.00 0.00 27 1012.6
20260506000058 21 17 0.0 0.0 0.00 0.00 0.00 26 1012.6
20260505234817 21 11 1.6 17.7 0.00 0.00 0.00 25 1012.8
20260505233601 21 39 1.6 16.1 0.00 0.00 0.00 26 1012.8
20260505232350 21 10 0.0 11.3 0.00 0.00 0.00 27 1012.9
20260505231149 21 67 0.0 17.7 0.00 0.00 0.00 27 1013.0
20260505225946 21 56 1.6 6.4 0.00 0.00 0.00 27 1013.1
20260505224753 21 94 0.0 1.6 0.00 0.00 0.00 26 1013.2
20260505222226 20 41 1.6 9.7 0.00 0.00 0.00 28 1013.4
20260505221025 21 333 0.0 6.4 0.00 0.00 0.00 29 1013.4
20260505215758 20 319 4.8 20.9 0.00 0.00 0.00 27 1013.5